BEIDOU-3 M7 (C29)

Last updated on Aug. 14, 2020, 5:31 a.m. UTC

1 43245U 18029A   20226.69110850 -.00000075  00000-0  00000+0 0  9992
2 43245  55.3166  13.4456 0000752 118.8507 272.3383  1.86232709 16163
UTC
Height (km)
Latitude
Longitude
Inclination
Orbital Period
UTC large
Height (km)
Speed (km/s)
/
Latitude / Longitude
Inclination (degrees)
Orbital Period (minutes)
Azimuth
Elevation
Range (km)
Doppler Factor
iOS Compass Heading
iOS Angle

Next 30 passes for location: Hong Kong

Rise time Rise Azimuth (degrees) Set time Set Azimuth (degrees) Duration Max altitude (degrees)

No matching passes for this satellites